Davenport, IA

1:15 PM CST on December 11, 2017 (GMT -0600)
Davenport Municipal

Weather History for KDVN - September, 2012

Change the Weather History Date:

Saturday, September 1, 2012

  Actual Average Record
Temperature  
Mean Temperature 72 °F 68 °F  
Max Temperature 75 °F 80 °F 95 °F (2011)
Min Temperature 68 °F 57 °F 46 °F (1949)
Degree Days  
Heating Degree Days 0 1  
Month to date heating degree days 0 1  
Since 1 July heating degree days 13 15  
Cooling Degree Days 7 4  
Month to date cooling degree days 7 4  
Year to date cooling degree days 1038 708  
Growing Degree Days 22 (Base 50)    
Moisture  
Dew Point 65 °F    
Average Humidity 78    
Maximum Humidity 90    
Minimum Humidity 66    
Precipitation  
Precipitation 0.08 in 0.10 in 1.57 in (1980)
Month to date precipitation 0.08 0.10  
Year to date precipitation 22.07 25.92  
Snow  
Snow 0.00 in - - ()
Month to date snowfall 0.0  
Since 1 July snowfall 0.0  
Since 1 September snowfall 0.0  
Snow Depth 0.00 in    
Sea Level Pressure  
Sea Level Pressure 29.96 in    
Wind  
Wind Speed 13 mph (ENE)    
Max Wind Speed 21 mph    
Max Gust Speed 25 mph    
Visibility 9 miles    
Events Rain    
T = Trace of Precipitation, MM = Missing Value Source: NWS Daily Summary

Daily Weather History Graph

Daily Weather History Graph

Search for Another Location

Airport or City:

Trip Planner

Search our weather history database for the weather conditions in past years. The results will help you decide how hot, cold, wet, or windy it might be!

Date:

Astronomy

Sep. 01, 2012 Rise Set
Actual Time 6:28 AM CDT 7:34 PM CDT
Civil Twilight 6:00 AM CDT 8:03 PM CDT
Nautical Twilight 5:26 AM CDT 8:37 PM CDT
Astronomical Twilight 4:50 AM CDT 9:12 PM CDT
Moon 7:49 PM CDT (9/1) 7:38 AM CDT (9/1)
Length of Visible Light 14h 02m
Length of Day
13h 05m
Full, 99% of the Moon is Illuminated
Sep 1
Full
Sep 8
Last Quarter
Sep 15
New
Sep 22
First Quarter
Sep 29
Full

Hourly Weather History & Observations

Time (CDT) Temp. Dew Point Humidity Pressure Visibility Wind Dir Wind Speed Gust Speed Precip Events Conditions
12:52 AM 73.0 °F 70.0 °F 90% 30.00 in 8.0 mi NE 5.8 mph - N/A   Clear
1:52 AM 75.0 °F 71.1 °F 87% 29.99 in 10.0 mi ENE 10.4 mph - N/A   Mostly Cloudy
2:52 AM 75.0 °F 70.0 °F 84% 29.99 in 10.0 mi ENE 10.4 mph - N/A   Partly Cloudy
3:52 AM 72.0 °F 68.0 °F 87% 29.99 in 9.0 mi ENE 12.7 mph - N/A   Partly Cloudy
4:52 AM 71.1 °F 59.0 °F 66% 29.97 in 10.0 mi ENE 13.8 mph - N/A   Clear
5:52 AM 70.0 °F 57.0 °F 63% 29.95 in 10.0 mi ENE 11.5 mph - N/A   Clear
7:52 AM 70.0 °F 59.0 °F 68% 29.98 in 10.0 mi ENE 11.5 mph - N/A   Clear
8:36 AM 71.6 °F 60.8 °F 69% 29.99 in 10.0 mi ENE 12.7 mph - N/A   Mostly Cloudy
8:52 AM 71.1 °F 61.0 °F 70% 29.98 in 10.0 mi ENE 13.8 mph - N/A   Overcast
9:52 AM 71.1 °F 63.0 °F 75% 29.99 in 10.0 mi ENE 12.7 mph - N/A   Overcast
10:28 AM 71.6 °F 62.6 °F 73% 29.99 in 10.0 mi ENE 16.1 mph 23.0 mph N/A   Scattered Clouds
10:52 AM 73.0 °F 63.0 °F 71% 29.99 in 9.0 mi East 13.8 mph 23.0 mph N/A   Mostly Cloudy
11:08 AM 71.6 °F 64.4 °F 78% 30.00 in 10.0 mi ENE 15.0 mph 25.3 mph 0.00 in Rain Light Rain
11:29 AM 71.6 °F 64.4 °F 78% 30.00 in 5.0 mi ENE 13.8 mph - 0.01 in Rain Light Rain
11:52 AM 70.0 °F 64.9 °F 84% 29.98 in 5.0 mi ENE 17.3 mph 23.0 mph 0.02 in Rain Light Rain
12:39 PM 71.6 °F 64.4 °F 78% 29.98 in 5.0 mi ENE 13.8 mph - 0.01 in Rain Light Rain
12:52 PM 71.1 °F 64.9 °F 81% 29.97 in 9.0 mi ENE 12.7 mph 23.0 mph 0.02 in Rain Light Rain
1:47 PM 71.6 °F 68.0 °F 88% 29.97 in 9.0 mi ENE 16.1 mph - 0.00 in Rain Light Rain
1:52 PM 72.0 °F 66.9 °F 84% 29.96 in 8.0 mi ENE 16.1 mph - 0.00 in Rain Light Rain
2:52 PM 72.0 °F 66.9 °F 84% 29.94 in 7.0 mi NE 16.1 mph - 0.02 in Rain Light Rain
3:52 PM 73.0 °F 66.9 °F 81% 29.93 in 10.0 mi NE 15.0 mph - 0.02 in   Overcast
4:00 PM 73.4 °F 66.2 °F 78% 29.94 in 10.0 mi NE 18.4 mph - N/A   Overcast
4:52 PM 73.9 °F 68.0 °F 82% 29.92 in 8.0 mi NE 13.8 mph - 0.00 in Rain Light Rain
5:52 PM 71.1 °F 68.0 °F 90% 29.91 in 10.0 mi NE 12.7 mph - 0.00 in   Mostly Cloudy
6:52 PM 73.0 °F 66.0 °F 79% 29.91 in 10.0 mi ENE 12.7 mph 20.7 mph N/A   Overcast
7:52 PM 71.1 °F 64.9 °F 81% 29.92 in 10.0 mi ENE 13.8 mph - N/A   Scattered Clouds
8:52 PM 70.0 °F 63.0 °F 78% 29.93 in 10.0 mi NE 12.7 mph - N/A   Partly Cloudy
9:52 PM 70.0 °F 63.0 °F 78% 29.93 in 10.0 mi ENE 12.7 mph 20.7 mph N/A   Partly Cloudy
10:52 PM 69.1 °F 61.0 °F 75% 29.92 in 10.0 mi ENE 12.7 mph 19.6 mph N/A   Clear
11:52 PM 69.1 °F 62.1 °F 78% 29.92 in 10.0 mi NE 9.2 mph - N/A   Overcast